Location: Finkenwalde
(53.3770°N, 14.6418°E)
Time: 02:27:07
(UTC+00:00)

Okean O Rocket - Pass Details

Date: 05 February 2023
Orbit: 621 x 643 km, 98.2° (Epoch: 20 March)

Event Time Altitude Azimuth Distance (km) Brightness Sun altitude
Rises 16:46:07 0° 126° (SE) 2,925 4.6 -8.4°
Reaches altitude 10° 16:48:38 10° 112° (ESE) 2,025 3.7 -8.8°
Maximum altitude 16:52:08 24° 59° (ENE) 1,337 2.7 -9.3°
Drops below altitude 10° 16:55:41 10° 6° (N) 2,047 4.0 -9.8°
Sets 16:58:14 0° 353° (N) 2,964 5.0 -10.1°
